Index of /20260428/WXO-DD/model_rdps/10km/00/002
Name Last modified Size Description
Parent Directory -
20260428T00Z_MSC_RDPS_AbsoluteVorticity_IsbL-0250_RLatLon0.09_PT002H.grib2 2026-04-28 02:41 606K
20260428T00Z_MSC_RDPS_AbsoluteVorticity_IsbL-0500_RLatLon0.09_PT002H.grib2 2026-04-28 02:41 546K
20260428T00Z_MSC_RDPS_AbsoluteVorticity_IsbL-0700_RLatLon0.09_PT002H.grib2 2026-04-28 02:41 606K
20260428T00Z_MSC_RDPS_AbsoluteVorticity_IsbL-0850_RLatLon0.09_PT002H.grib2 2026-04-28 02:41 760K
20260428T00Z_MSC_RDPS_AirTemp_AGL-120m_RLatLon0.09_PT002H.grib2 2026-04-28 02:41 383K
20260428T00Z_MSC_RDPS_AirTemp_AGL-2m_RLatLon0.09_PT002H.grib2 2026-04-28 02:41 614K
20260428T00Z_MSC_RDPS_AirTemp_AGL-40m_RLatLon0.09_PT002H.grib2 2026-04-28 02:41 393K
20260428T00Z_MSC_RDPS_AirTemp_AGL-80m_RLatLon0.09_PT002H.grib2 2026-04-28 02:41 386K
20260428T00Z_MSC_RDPS_AirTemp_IsbL-0001_RLatLon0.09_PT002H.grib2 2026-04-28 02:41 251K
20260428T00Z_MSC_RDPS_AirTemp_IsbL-0005_RLatLon0.09_PT002H.grib2 2026-04-28 02:41 280K
20260428T00Z_MSC_RDPS_AirTemp_IsbL-0010_RLatLon0.09_PT002H.grib2 2026-04-28 02:41 290K
20260428T00Z_MSC_RDPS_AirTemp_IsbL-0020_RLatLon0.09_PT002H.grib2 2026-04-28 02:41 303K
20260428T00Z_MSC_RDPS_AirTemp_IsbL-0030_RLatLon0.09_PT002H.grib2 2026-04-28 02:41 316K
20260428T00Z_MSC_RDPS_AirTemp_IsbL-0050_RLatLon0.09_PT002H.grib2 2026-04-28 02:41 299K
20260428T00Z_MSC_RDPS_AirTemp_IsbL-0100_RLatLon0.09_PT002H.grib2 2026-04-28 02:41 412K
20260428T00Z_MSC_RDPS_AirTemp_IsbL-0150_RLatLon0.09_PT002H.grib2 2026-04-28 02:41 415K
20260428T00Z_MSC_RDPS_AirTemp_IsbL-0175_RLatLon0.09_PT002H.grib2 2026-04-28 02:41 409K
20260428T00Z_MSC_RDPS_AirTemp_IsbL-0200_RLatLon0.09_PT002H.grib2 2026-04-28 02:41 414K
20260428T00Z_MSC_RDPS_AirTemp_IsbL-0225_RLatLon0.09_PT002H.grib2 2026-04-28 02:41 414K
20260428T00Z_MSC_RDPS_AirTemp_IsbL-0250_RLatLon0.09_PT002H.grib2 2026-04-28 02:41 420K
20260428T00Z_MSC_RDPS_AirTemp_IsbL-0275_RLatLon0.09_PT002H.grib2 2026-04-28 02:41 402K
20260428T00Z_MSC_RDPS_AirTemp_IsbL-0300_RLatLon0.09_PT002H.grib2 2026-04-28 02:41 407K
20260428T00Z_MSC_RDPS_AirTemp_IsbL-0350_RLatLon0.09_PT002H.grib2 2026-04-28 02:41 421K
20260428T00Z_MSC_RDPS_AirTemp_IsbL-0400_RLatLon0.09_PT002H.grib2 2026-04-28 02:41 423K
20260428T00Z_MSC_RDPS_AirTemp_IsbL-0450_RLatLon0.09_PT002H.grib2 2026-04-28 02:41 430K
20260428T00Z_MSC_RDPS_AirTemp_IsbL-0500_RLatLon0.09_PT002H.grib2 2026-04-28 02:41 405K
20260428T00Z_MSC_RDPS_AirTemp_IsbL-0550_RLatLon0.09_PT002H.grib2 2026-04-28 02:41 423K
20260428T00Z_MSC_RDPS_AirTemp_IsbL-0600_RLatLon0.09_PT002H.grib2 2026-04-28 02:41 441K
20260428T00Z_MSC_RDPS_AirTemp_IsbL-0650_RLatLon0.09_PT002H.grib2 2026-04-28 02:41 453K
20260428T00Z_MSC_RDPS_AirTemp_IsbL-0700_RLatLon0.09_PT002H.grib2 2026-04-28 02:41 475K
20260428T00Z_MSC_RDPS_AirTemp_IsbL-0750_RLatLon0.09_PT002H.grib2 2026-04-28 02:41 403K
20260428T00Z_MSC_RDPS_AirTemp_IsbL-0800_RLatLon0.09_PT002H.grib2 2026-04-28 02:41 445K
20260428T00Z_MSC_RDPS_AirTemp_IsbL-0850_RLatLon0.09_PT002H.grib2 2026-04-28 02:41 483K
20260428T00Z_MSC_RDPS_AirTemp_IsbL-0875_RLatLon0.09_PT002H.grib2 2026-04-28 02:41 497K
20260428T00Z_MSC_RDPS_AirTemp_IsbL-0900_RLatLon0.09_PT002H.grib2 2026-04-28 02:41 513K
20260428T00Z_MSC_RDPS_AirTemp_IsbL-0925_RLatLon0.09_PT002H.grib2 2026-04-28 02:41 515K
20260428T00Z_MSC_RDPS_AirTemp_IsbL-0950_RLatLon0.09_PT002H.grib2 2026-04-28 02:41 522K
20260428T00Z_MSC_RDPS_AirTemp_IsbL-0970_RLatLon0.09_PT002H.grib2 2026-04-28 02:41 520K
20260428T00Z_MSC_RDPS_AirTemp_IsbL-0985_RLatLon0.09_PT002H.grib2 2026-04-28 02:41 510K
20260428T00Z_MSC_RDPS_AirTemp_IsbL-1000_RLatLon0.09_PT002H.grib2 2026-04-28 02:41 492K
20260428T00Z_MSC_RDPS_AirTemp_IsbL-1015_RLatLon0.09_PT002H.grib2 2026-04-28 02:41 490K
20260428T00Z_MSC_RDPS_Albedo_Sfc_RLatLon0.09_PT002H.grib2 2026-04-28 02:41 165K
20260428T00Z_MSC_RDPS_CAPE_Sfc_RLatLon0.09_PT002H.grib2 2026-04-28 02:41 1.7M
20260428T00Z_MSC_RDPS_CIN_Sfc_RLatLon0.09_PT002H.grib2 2026-04-28 02:41 1.2M
20260428T00Z_MSC_RDPS_CloudWater_EAtm_RLatLon0.09_PT002H.grib2 2026-04-28 02:41 213K
20260428T00Z_MSC_RDPS_ConvectivePrecip-Accum_Sfc_RLatLon0.09_PT002H.grib2 2026-04-28 02:41 390K
20260428T00Z_MSC_RDPS_DewPointDepression_AGL-2m_RLatLon0.09_PT002H.grib2 2026-04-28 02:41 393K
20260428T00Z_MSC_RDPS_DewPointDepression_IsbL-0001_RLatLon0.09_PT002H.grib2 2026-04-28 02:41 193
20260428T00Z_MSC_RDPS_DewPointDepression_IsbL-0005_RLatLon0.09_PT002H.grib2 2026-04-28 02:41 193
20260428T00Z_MSC_RDPS_DewPointDepression_IsbL-0010_RLatLon0.09_PT002H.grib2 2026-04-28 02:41 193
20260428T00Z_MSC_RDPS_DewPointDepression_IsbL-0020_RLatLon0.09_PT002H.grib2 2026-04-28 02:41 193
20260428T00Z_MSC_RDPS_DewPointDepression_IsbL-0030_RLatLon0.09_PT002H.grib2 2026-04-28 02:41 193
20260428T00Z_MSC_RDPS_DewPointDepression_IsbL-0050_RLatLon0.09_PT002H.grib2 2026-04-28 02:41 85K
20260428T00Z_MSC_RDPS_DewPointDepression_IsbL-0100_RLatLon0.09_PT002H.grib2 2026-04-28 02:41 125K
20260428T00Z_MSC_RDPS_DewPointDepression_IsbL-0150_RLatLon0.09_PT002H.grib2 2026-04-28 02:41 155K
20260428T00Z_MSC_RDPS_DewPointDepression_IsbL-0175_RLatLon0.09_PT002H.grib2 2026-04-28 02:41 190K
20260428T00Z_MSC_RDPS_DewPointDepression_IsbL-0200_RLatLon0.09_PT002H.grib2 2026-04-28 02:41 226K
20260428T00Z_MSC_RDPS_DewPointDepression_IsbL-0225_RLatLon0.09_PT002H.grib2 2026-04-28 02:41 264K
20260428T00Z_MSC_RDPS_DewPointDepression_IsbL-0250_RLatLon0.09_PT002H.grib2 2026-04-28 02:41 298K
20260428T00Z_MSC_RDPS_DewPointDepression_IsbL-0275_RLatLon0.09_PT002H.grib2 2026-04-28 02:41 307K
20260428T00Z_MSC_RDPS_DewPointDepression_IsbL-0300_RLatLon0.09_PT002H.grib2 2026-04-28 02:41 322K
20260428T00Z_MSC_RDPS_DewPointDepression_IsbL-0350_RLatLon0.09_PT002H.grib2 2026-04-28 02:41 329K
20260428T00Z_MSC_RDPS_DewPointDepression_IsbL-0400_RLatLon0.09_PT002H.grib2 2026-04-28 02:41 343K
20260428T00Z_MSC_RDPS_DewPointDepression_IsbL-0450_RLatLon0.09_PT002H.grib2 2026-04-28 02:41 348K
20260428T00Z_MSC_RDPS_DewPointDepression_IsbL-0500_RLatLon0.09_PT002H.grib2 2026-04-28 02:41 350K
20260428T00Z_MSC_RDPS_DewPointDepression_IsbL-0550_RLatLon0.09_PT002H.grib2 2026-04-28 02:41 362K
20260428T00Z_MSC_RDPS_DewPointDepression_IsbL-0600_RLatLon0.09_PT002H.grib2 2026-04-28 02:41 376K
20260428T00Z_MSC_RDPS_DewPointDepression_IsbL-0650_RLatLon0.09_PT002H.grib2 2026-04-28 02:41 381K
20260428T00Z_MSC_RDPS_DewPointDepression_IsbL-0700_RLatLon0.09_PT002H.grib2 2026-04-28 02:41 392K
20260428T00Z_MSC_RDPS_DewPointDepression_IsbL-0750_RLatLon0.09_PT002H.grib2 2026-04-28 02:41 413K
20260428T00Z_MSC_RDPS_DewPointDepression_IsbL-0800_RLatLon0.09_PT002H.grib2 2026-04-28 02:41 442K
20260428T00Z_MSC_RDPS_DewPointDepression_IsbL-0850_RLatLon0.09_PT002H.grib2 2026-04-28 02:41 462K
20260428T00Z_MSC_RDPS_DewPointDepression_IsbL-0875_RLatLon0.09_PT002H.grib2 2026-04-28 02:41 462K
20260428T00Z_MSC_RDPS_DewPointDepression_IsbL-0900_RLatLon0.09_PT002H.grib2 2026-04-28 02:41 454K
20260428T00Z_MSC_RDPS_DewPointDepression_IsbL-0925_RLatLon0.09_PT002H.grib2 2026-04-28 02:41 445K
20260428T00Z_MSC_RDPS_DewPointDepression_IsbL-0950_RLatLon0.09_PT002H.grib2 2026-04-28 02:41 437K
20260428T00Z_MSC_RDPS_DewPointDepression_IsbL-0970_RLatLon0.09_PT002H.grib2 2026-04-28 02:41 429K
20260428T00Z_MSC_RDPS_DewPointDepression_IsbL-0985_RLatLon0.09_PT002H.grib2 2026-04-28 02:41 420K
20260428T00Z_MSC_RDPS_DewPointDepression_IsbL-1000_RLatLon0.09_PT002H.grib2 2026-04-28 02:41 412K
20260428T00Z_MSC_RDPS_DewPointDepression_IsbL-1015_RLatLon0.09_PT002H.grib2 2026-04-28 02:41 403K
20260428T00Z_MSC_RDPS_DewPoint_AGL-2m_RLatLon0.09_PT002H.grib2 2026-04-28 02:41 299K
20260428T00Z_MSC_RDPS_DownwardLongwaveRadiationFlux-Accum_Sfc_RLatLon0.09_PT002H.grib2 2026-04-28 02:41 511K
20260428T00Z_MSC_RDPS_DownwardShortwaveRadiationFlux-Accum_NTAtm_RLatLon0.09_PT002H.grib2 2026-04-28 02:41 86K
20260428T00Z_MSC_RDPS_DownwardShortwaveRadiationFlux-Accum_Sfc_RLatLon0.09_PT002H.grib2 2026-04-28 02:41 330K
20260428T00Z_MSC_RDPS_FreezingRain-Accum1h_Sfc_RLatLon0.09_PT002H.grib2 2026-04-28 02:41 13K
20260428T00Z_MSC_RDPS_FreezingRain-Accum_Sfc_RLatLon0.09_PT002H.grib2 2026-04-28 02:41 18K
20260428T00Z_MSC_RDPS_GeopotentialHeight_IsbL-0001_RLatLon0.09_PT002H.grib2 2026-04-28 02:41 236K
20260428T00Z_MSC_RDPS_GeopotentialHeight_IsbL-0005_RLatLon0.09_PT002H.grib2 2026-04-28 02:41 333K
20260428T00Z_MSC_RDPS_GeopotentialHeight_IsbL-0010_RLatLon0.09_PT002H.grib2 2026-04-28 02:41 299K
20260428T00Z_MSC_RDPS_GeopotentialHeight_IsbL-0020_RLatLon0.09_PT002H.grib2 2026-04-28 02:41 298K
20260428T00Z_MSC_RDPS_GeopotentialHeight_IsbL-0030_RLatLon0.09_PT002H.grib2 2026-04-28 02:41 299K
20260428T00Z_MSC_RDPS_GeopotentialHeight_IsbL-0050_RLatLon0.09_PT002H.grib2 2026-04-28 02:41 335K
20260428T00Z_MSC_RDPS_GeopotentialHeight_IsbL-0100_RLatLon0.09_PT002H.grib2 2026-04-28 02:41 285K
20260428T00Z_MSC_RDPS_GeopotentialHeight_IsbL-0150_RLatLon0.09_PT002H.grib2 2026-04-28 02:41 228K
20260428T00Z_MSC_RDPS_GeopotentialHeight_IsbL-0175_RLatLon0.09_PT002H.grib2 2026-04-28 02:41 232K
20260428T00Z_MSC_RDPS_GeopotentialHeight_IsbL-0200_RLatLon0.09_PT002H.grib2 2026-04-28 02:41 265K
20260428T00Z_MSC_RDPS_GeopotentialHeight_IsbL-0225_RLatLon0.09_PT002H.grib2 2026-04-28 02:41 266K
20260428T00Z_MSC_RDPS_GeopotentialHeight_IsbL-0250_RLatLon0.09_PT002H.grib2 2026-04-28 02:41 268K
20260428T00Z_MSC_RDPS_GeopotentialHeight_IsbL-0275_RLatLon0.09_PT002H.grib2 2026-04-28 02:41 267K
20260428T00Z_MSC_RDPS_GeopotentialHeight_IsbL-0300_RLatLon0.09_PT002H.grib2 2026-04-28 02:41 267K
20260428T00Z_MSC_RDPS_GeopotentialHeight_IsbL-0350_RLatLon0.09_PT002H.grib2 2026-04-28 02:41 232K
20260428T00Z_MSC_RDPS_GeopotentialHeight_IsbL-0400_RLatLon0.09_PT002H.grib2 2026-04-28 02:41 229K
20260428T00Z_MSC_RDPS_GeopotentialHeight_IsbL-0450_RLatLon0.09_PT002H.grib2 2026-04-28 02:41 296K
20260428T00Z_MSC_RDPS_GeopotentialHeight_IsbL-0500_RLatLon0.09_PT002H.grib2 2026-04-28 02:41 291K
20260428T00Z_MSC_RDPS_GeopotentialHeight_IsbL-0550_RLatLon0.09_PT002H.grib2 2026-04-28 02:41 288K
20260428T00Z_MSC_RDPS_GeopotentialHeight_IsbL-0600_RLatLon0.09_PT002H.grib2 2026-04-28 02:41 285K
20260428T00Z_MSC_RDPS_GeopotentialHeight_IsbL-0650_RLatLon0.09_PT002H.grib2 2026-04-28 02:41 283K
20260428T00Z_MSC_RDPS_GeopotentialHeight_IsbL-0700_RLatLon0.09_PT002H.grib2 2026-04-28 02:41 281K
20260428T00Z_MSC_RDPS_GeopotentialHeight_IsbL-0750_RLatLon0.09_PT002H.grib2 2026-04-28 02:41 253K
20260428T00Z_MSC_RDPS_GeopotentialHeight_IsbL-0800_RLatLon0.09_PT002H.grib2 2026-04-28 02:41 258K
20260428T00Z_MSC_RDPS_GeopotentialHeight_IsbL-0850_RLatLon0.09_PT002H.grib2 2026-04-28 02:41 347K
20260428T00Z_MSC_RDPS_GeopotentialHeight_IsbL-0875_RLatLon0.09_PT002H.grib2 2026-04-28 02:41 348K
20260428T00Z_MSC_RDPS_GeopotentialHeight_IsbL-0900_RLatLon0.09_PT002H.grib2 2026-04-28 02:41 354K
20260428T00Z_MSC_RDPS_GeopotentialHeight_IsbL-0925_RLatLon0.09_PT002H.grib2 2026-04-28 02:41 356K
20260428T00Z_MSC_RDPS_GeopotentialHeight_IsbL-0950_RLatLon0.09_PT002H.grib2 2026-04-28 02:41 359K
20260428T00Z_MSC_RDPS_GeopotentialHeight_IsbL-0970_RLatLon0.09_PT002H.grib2 2026-04-28 02:41 366K
20260428T00Z_MSC_RDPS_GeopotentialHeight_IsbL-0985_RLatLon0.09_PT002H.grib2 2026-04-28 02:41 375K
20260428T00Z_MSC_RDPS_GeopotentialHeight_IsbL-1000_RLatLon0.09_PT002H.grib2 2026-04-28 02:41 385K
20260428T00Z_MSC_RDPS_GeopotentialHeight_IsbL-1015_RLatLon0.09_PT002H.grib2 2026-04-28 02:41 398K
20260428T00Z_MSC_RDPS_Humidex_Sfc_RLatLon0.09_PT002H.grib2 2026-04-28 02:41 2.4M
20260428T00Z_MSC_RDPS_IcePellets-Accum1h_Sfc_RLatLon0.09_PT002H.grib2 2026-04-28 02:41 5.9K
20260428T00Z_MSC_RDPS_IcePellets-Accum_Sfc_RLatLon0.09_PT002H.grib2 2026-04-28 02:41 6.8K
20260428T00Z_MSC_RDPS_KIndex_Sfc_RLatLon0.09_PT002H.grib2 2026-04-28 02:41 2.4M
20260428T00Z_MSC_RDPS_LatentHeatNetFlux_Sfc_RLatLon0.09_PT002H.grib2 2026-04-28 02:41 320K
20260428T00Z_MSC_RDPS_LiftedIndex-MU-VT_IsbL-0500_RLatLon0.09_PT002H.grib2 2026-04-28 02:41 2.4M
20260428T00Z_MSC_RDPS_NetLongwaveRadiationFlux-Accum_Sfc_RLatLon0.09_PT002H.grib2 2026-04-28 02:41 650K
20260428T00Z_MSC_RDPS_NetShortwaveRadiationFlux-Accum_Sfc_RLatLon0.09_PT002H.grib2 2026-04-28 02:41 309K
20260428T00Z_MSC_RDPS_PlanetaryBoundaryLayerHeight_Sfc_RLatLon0.09_PT002H.grib2 2026-04-28 02:41 1.1M
20260428T00Z_MSC_RDPS_Precip-Accum1h_Sfc_RLatLon0.09_PT002H.grib2 2026-04-28 02:41 1.1M
20260428T00Z_MSC_RDPS_Precip-Accum_Sfc_RLatLon0.09_PT002H.grib2 2026-04-28 02:41 1.2M
20260428T00Z_MSC_RDPS_PrecipRate_Sfc_RLatLon0.09_PT002H.grib2 2026-04-28 02:41 120K
20260428T00Z_MSC_RDPS_PrecipType-Instant_Sfc_RLatLon0.09_PT002H.grib2 2026-04-28 02:41 525K
20260428T00Z_MSC_RDPS_Pressure_MSL_RLatLon0.09_PT002H.grib2 2026-04-28 02:41 289K
20260428T00Z_MSC_RDPS_Pressure_PVU-1.5_RLatLon0.09_PT002H.grib2 2026-04-28 02:41 2.4M
20260428T00Z_MSC_RDPS_Pressure_PVU-1_RLatLon0.09_PT002H.grib2 2026-04-28 02:41 2.4M
20260428T00Z_MSC_RDPS_Pressure_PVU-2_RLatLon0.09_PT002H.grib2 2026-04-28 02:41 2.4M
20260428T00Z_MSC_RDPS_Pressure_Sfc_RLatLon0.09_PT002H.grib2 2026-04-28 02:41 499K
20260428T00Z_MSC_RDPS_RadiativeTemp_Sfc_RLatLon0.09_PT002H.grib2 2026-04-28 02:41 297K
20260428T00Z_MSC_RDPS_Rain-Accum1h_Sfc_RLatLon0.09_PT002H.grib2 2026-04-28 02:41 493K
20260428T00Z_MSC_RDPS_Rain-Accum_Sfc_RLatLon0.09_PT002H.grib2 2026-04-28 02:41 805K
20260428T00Z_MSC_RDPS_RelativeHumidity_AGL-2m_RLatLon0.09_PT002H.grib2 2026-04-28 02:41 1.0M
20260428T00Z_MSC_RDPS_RelativeHumidity_IsbL-0010_RLatLon0.09_PT002H.grib2 2026-04-28 02:41 646K
20260428T00Z_MSC_RDPS_RelativeHumidity_IsbL-0020_RLatLon0.09_PT002H.grib2 2026-04-28 02:41 648K
20260428T00Z_MSC_RDPS_RelativeHumidity_IsbL-0030_RLatLon0.09_PT002H.grib2 2026-04-28 02:41 528K
20260428T00Z_MSC_RDPS_RelativeHumidity_IsbL-0050_RLatLon0.09_PT002H.grib2 2026-04-28 02:41 312K
20260428T00Z_MSC_RDPS_RelativeHumidity_IsbL-0100_RLatLon0.09_PT002H.grib2 2026-04-28 02:41 270K
20260428T00Z_MSC_RDPS_RelativeHumidity_IsbL-0150_RLatLon0.09_PT002H.grib2 2026-04-28 02:41 408K
20260428T00Z_MSC_RDPS_RelativeHumidity_IsbL-0175_RLatLon0.09_PT002H.grib2 2026-04-28 02:41 483K
20260428T00Z_MSC_RDPS_RelativeHumidity_IsbL-0200_RLatLon0.09_PT002H.grib2 2026-04-28 02:41 554K
20260428T00Z_MSC_RDPS_RelativeHumidity_IsbL-0225_RLatLon0.09_PT002H.grib2 2026-04-28 02:41 614K
20260428T00Z_MSC_RDPS_RelativeHumidity_IsbL-0250_RLatLon0.09_PT002H.grib2 2026-04-28 02:41 673K
20260428T00Z_MSC_RDPS_RelativeHumidity_IsbL-0275_RLatLon0.09_PT002H.grib2 2026-04-28 02:41 703K
20260428T00Z_MSC_RDPS_RelativeHumidity_IsbL-0300_RLatLon0.09_PT002H.grib2 2026-04-28 02:41 748K
20260428T00Z_MSC_RDPS_RelativeHumidity_IsbL-0350_RLatLon0.09_PT002H.grib2 2026-04-28 02:41 768K
20260428T00Z_MSC_RDPS_RelativeHumidity_IsbL-0400_RLatLon0.09_PT002H.grib2 2026-04-28 02:41 782K
20260428T00Z_MSC_RDPS_RelativeHumidity_IsbL-0450_RLatLon0.09_PT002H.grib2 2026-04-28 02:41 787K
20260428T00Z_MSC_RDPS_RelativeHumidity_IsbL-0500_RLatLon0.09_PT002H.grib2 2026-04-28 02:41 801K
20260428T00Z_MSC_RDPS_RelativeHumidity_IsbL-0550_RLatLon0.09_PT002H.grib2 2026-04-28 02:41 818K
20260428T00Z_MSC_RDPS_RelativeHumidity_IsbL-0600_RLatLon0.09_PT002H.grib2 2026-04-28 02:41 838K
20260428T00Z_MSC_RDPS_RelativeHumidity_IsbL-0650_RLatLon0.09_PT002H.grib2 2026-04-28 02:41 851K
20260428T00Z_MSC_RDPS_RelativeHumidity_IsbL-0700_RLatLon0.09_PT002H.grib2 2026-04-28 02:41 876K
20260428T00Z_MSC_RDPS_RelativeHumidity_IsbL-0750_RLatLon0.09_PT002H.grib2 2026-04-28 02:41 922K
20260428T00Z_MSC_RDPS_RelativeHumidity_IsbL-0800_RLatLon0.09_PT002H.grib2 2026-04-28 02:41 1.0M
20260428T00Z_MSC_RDPS_RelativeHumidity_IsbL-0850_RLatLon0.09_PT002H.grib2 2026-04-28 02:41 1.0M
20260428T00Z_MSC_RDPS_RelativeHumidity_IsbL-0875_RLatLon0.09_PT002H.grib2 2026-04-28 02:41 1.0M
20260428T00Z_MSC_RDPS_RelativeHumidity_IsbL-0900_RLatLon0.09_PT002H.grib2 2026-04-28 02:41 1.1M
20260428T00Z_MSC_RDPS_RelativeHumidity_IsbL-0925_RLatLon0.09_PT002H.grib2 2026-04-28 02:41 1.1M
20260428T00Z_MSC_RDPS_RelativeHumidity_IsbL-0950_RLatLon0.09_PT002H.grib2 2026-04-28 02:41 1.0M
20260428T00Z_MSC_RDPS_RelativeHumidity_IsbL-0970_RLatLon0.09_PT002H.grib2 2026-04-28 02:41 1.0M
20260428T00Z_MSC_RDPS_RelativeHumidity_IsbL-0985_RLatLon0.09_PT002H.grib2 2026-04-28 02:41 1.0M
20260428T00Z_MSC_RDPS_RelativeHumidity_IsbL-1000_RLatLon0.09_PT002H.grib2 2026-04-28 02:41 1.0M
20260428T00Z_MSC_RDPS_RelativeHumidity_IsbL-1015_RLatLon0.09_PT002H.grib2 2026-04-28 02:41 1.0M
20260428T00Z_MSC_RDPS_Runoff-Accum_Sfc_RLatLon0.09_PT002H.grib2 2026-04-28 02:41 32K
20260428T00Z_MSC_RDPS_SWEATIndex_Sfc_RLatLon0.09_PT002H.grib2 2026-04-28 02:41 2.4M
20260428T00Z_MSC_RDPS_SeeingIndex_EAtm_RLatLon0.09_PT002H.grib2 2026-04-28 02:41 1.0M
20260428T00Z_MSC_RDPS_SensibleHeatNetFlux_Sfc_RLatLon0.09_PT002H.grib2 2026-04-28 02:41 292K
20260428T00Z_MSC_RDPS_ShowalterIndex_IsbL-0500_RLatLon0.09_PT002H.grib2 2026-04-28 02:41 2.6M
20260428T00Z_MSC_RDPS_SkyTransparencyIndex_EAtm_RLatLon0.09_PT002H.grib2 2026-04-28 02:41 697K
20260428T00Z_MSC_RDPS_Snow-Accum1h_Sfc_RLatLon0.09_PT002H.grib2 2026-04-28 02:41 377K
20260428T00Z_MSC_RDPS_Snow-Accum_Sfc_RLatLon0.09_PT002H.grib2 2026-04-28 02:41 568K
20260428T00Z_MSC_RDPS_SnowDensity_Sfc_RLatLon0.09_PT002H.grib2 2026-04-28 02:41 173K
20260428T00Z_MSC_RDPS_SnowDepth_Sfc_RLatLon0.09_PT002H.grib2 2026-04-28 02:41 695K
20260428T00Z_MSC_RDPS_SoilTemp_DBS-0to10cm_RLatLon0.09_PT002H.grib2 2026-04-28 02:41 190K
20260428T00Z_MSC_RDPS_SoilTemp_Sfc_RLatLon0.09_PT002H.grib2 2026-04-28 02:41 253K
20260428T00Z_MSC_RDPS_SoilVolumetricIceContent_Sfc_RLatLon0.09_PT002H.grib2 2026-04-28 02:41 168K
20260428T00Z_MSC_RDPS_SoilVolumetricWaterContent_DBS-0to10cm_RLatLon0.09_PT002H.grib2 2026-04-28 02:41 260K
20260428T00Z_MSC_RDPS_SoilVolumetricWaterContent_DBS-0to1cm_RLatLon0.09_PT002H.grib2 2026-04-28 02:41 330K
20260428T00Z_MSC_RDPS_SpecificHumidity_AGL-120m_RLatLon0.09_PT002H.grib2 2026-04-28 02:41 467K
20260428T00Z_MSC_RDPS_SpecificHumidity_AGL-2m_RLatLon0.09_PT002H.grib2 2026-04-28 02:41 631K
20260428T00Z_MSC_RDPS_SpecificHumidity_AGL-40m_RLatLon0.09_PT002H.grib2 2026-04-28 02:41 472K
20260428T00Z_MSC_RDPS_SpecificHumidity_AGL-80m_RLatLon0.09_PT002H.grib2 2026-04-28 02:41 467K
20260428T00Z_MSC_RDPS_SpecificHumidity_IsbL-0001_RLatLon0.09_PT002H.grib2 2026-04-28 02:41 334K
20260428T00Z_MSC_RDPS_SpecificHumidity_IsbL-0005_RLatLon0.09_PT002H.grib2 2026-04-28 02:41 353K
20260428T00Z_MSC_RDPS_SpecificHumidity_IsbL-0010_RLatLon0.09_PT002H.grib2 2026-04-28 02:41 390K
20260428T00Z_MSC_RDPS_SpecificHumidity_IsbL-0020_RLatLon0.09_PT002H.grib2 2026-04-28 02:41 383K
20260428T00Z_MSC_RDPS_SpecificHumidity_IsbL-0030_RLatLon0.09_PT002H.grib2 2026-04-28 02:41 366K
20260428T00Z_MSC_RDPS_SpecificHumidity_IsbL-0050_RLatLon0.09_PT002H.grib2 2026-04-28 02:41 457K
20260428T00Z_MSC_RDPS_SpecificHumidity_IsbL-0100_RLatLon0.09_PT002H.grib2 2026-04-28 02:41 434K
20260428T00Z_MSC_RDPS_SpecificHumidity_IsbL-0150_RLatLon0.09_PT002H.grib2 2026-04-28 02:41 358K
20260428T00Z_MSC_RDPS_SpecificHumidity_IsbL-0175_RLatLon0.09_PT002H.grib2 2026-04-28 02:41 466K
20260428T00Z_MSC_RDPS_SpecificHumidity_IsbL-0200_RLatLon0.09_PT002H.grib2 2026-04-28 02:41 459K
20260428T00Z_MSC_RDPS_SpecificHumidity_IsbL-0225_RLatLon0.09_PT002H.grib2 2026-04-28 02:41 558K
20260428T00Z_MSC_RDPS_SpecificHumidity_IsbL-0250_RLatLon0.09_PT002H.grib2 2026-04-28 02:41 549K
20260428T00Z_MSC_RDPS_SpecificHumidity_IsbL-0275_RLatLon0.09_PT002H.grib2 2026-04-28 02:41 467K
20260428T00Z_MSC_RDPS_SpecificHumidity_IsbL-0300_RLatLon0.09_PT002H.grib2 2026-04-28 02:41 566K
20260428T00Z_MSC_RDPS_SpecificHumidity_IsbL-0350_RLatLon0.09_PT002H.grib2 2026-04-28 02:41 530K
20260428T00Z_MSC_RDPS_SpecificHumidity_IsbL-0400_RLatLon0.09_PT002H.grib2 2026-04-28 02:41 513K
20260428T00Z_MSC_RDPS_SpecificHumidity_IsbL-0450_RLatLon0.09_PT002H.grib2 2026-04-28 02:41 565K
20260428T00Z_MSC_RDPS_SpecificHumidity_IsbL-0500_RLatLon0.09_PT002H.grib2 2026-04-28 02:41 500K
20260428T00Z_MSC_RDPS_SpecificHumidity_IsbL-0550_RLatLon0.09_PT002H.grib2 2026-04-28 02:41 553K
20260428T00Z_MSC_RDPS_SpecificHumidity_IsbL-0600_RLatLon0.09_PT002H.grib2 2026-04-28 02:41 621K
20260428T00Z_MSC_RDPS_SpecificHumidity_IsbL-0650_RLatLon0.09_PT002H.grib2 2026-04-28 02:41 539K
20260428T00Z_MSC_RDPS_SpecificHumidity_IsbL-0700_RLatLon0.09_PT002H.grib2 2026-04-28 02:41 583K
20260428T00Z_MSC_RDPS_SpecificHumidity_IsbL-0750_RLatLon0.09_PT002H.grib2 2026-04-28 02:41 652K
20260428T00Z_MSC_RDPS_SpecificHumidity_IsbL-0800_RLatLon0.09_PT002H.grib2 2026-04-28 02:41 720K
20260428T00Z_MSC_RDPS_SpecificHumidity_IsbL-0850_RLatLon0.09_PT002H.grib2 2026-04-28 02:41 785K
20260428T00Z_MSC_RDPS_SpecificHumidity_IsbL-0875_RLatLon0.09_PT002H.grib2 2026-04-28 02:41 810K
20260428T00Z_MSC_RDPS_SpecificHumidity_IsbL-0900_RLatLon0.09_PT002H.grib2 2026-04-28 02:41 684K
20260428T00Z_MSC_RDPS_SpecificHumidity_IsbL-0925_RLatLon0.09_PT002H.grib2 2026-04-28 02:41 686K
20260428T00Z_MSC_RDPS_SpecificHumidity_IsbL-0950_RLatLon0.09_PT002H.grib2 2026-04-28 02:41 685K
20260428T00Z_MSC_RDPS_SpecificHumidity_IsbL-0970_RLatLon0.09_PT002H.grib2 2026-04-28 02:41 673K
20260428T00Z_MSC_RDPS_SpecificHumidity_IsbL-0985_RLatLon0.09_PT002H.grib2 2026-04-28 02:41 662K
20260428T00Z_MSC_RDPS_SpecificHumidity_IsbL-1000_RLatLon0.09_PT002H.grib2 2026-04-28 02:41 654K
20260428T00Z_MSC_RDPS_SpecificHumidity_IsbL-1015_RLatLon0.09_PT002H.grib2 2026-04-28 02:41 645K
20260428T00Z_MSC_RDPS_SpecificHumidity_Sfc_RLatLon0.09_PT002H.grib2 2026-04-28 02:41 293K
20260428T00Z_MSC_RDPS_StormRelativeHelicity_EtaL-10000_RLatLon0.09_PT002H.grib2 2026-04-28 02:41 1.1M
20260428T00Z_MSC_RDPS_StormSeverityIndex_EtaL-10000_RLatLon0.09_PT002H.grib2 2026-04-28 02:41 1.2M
20260428T00Z_MSC_RDPS_Thickness_IsbL-0850to0700_RLatLon0.09_PT002H.grib2 2026-04-28 02:41 174K
20260428T00Z_MSC_RDPS_Thickness_IsbL-1000to0500_RLatLon0.09_PT002H.grib2 2026-04-28 02:41 198K
20260428T00Z_MSC_RDPS_Thickness_IsbL-1000to0850_RLatLon0.09_PT002H.grib2 2026-04-28 02:41 181K
20260428T00Z_MSC_RDPS_TotalCloudCover_Sfc_RLatLon0.09_PT002H.grib2 2026-04-28 02:41 643K
20260428T00Z_MSC_RDPS_TotalTotalsIndex_Sfc_RLatLon0.09_PT002H.grib2 2026-04-28 02:41 2.3M
20260428T00Z_MSC_RDPS_UVIndex-ClearSky_Sfc_RLatLon0.09_PT002H.grib2 2026-04-28 02:41 114K
20260428T00Z_MSC_RDPS_UVIndex_Sfc_RLatLon0.09_PT002H.grib2 2026-04-28 02:41 305K
20260428T00Z_MSC_RDPS_UpwardLongwaveRadiationFlux_NTAtm_RLatLon0.09_PT002H.grib2 2026-04-28 02:41 485K
20260428T00Z_MSC_RDPS_UpwardShortwaveRadiationFlux_NTAtm_RLatLon0.09_PT002H.grib2 2026-04-28 02:41 235K
20260428T00Z_MSC_RDPS_VerticalVelocity_IsbL-0250_RLatLon0.09_PT002H.grib2 2026-04-28 02:41 443K
20260428T00Z_MSC_RDPS_VerticalVelocity_IsbL-0500_RLatLon0.09_PT002H.grib2 2026-04-28 02:41 534K
20260428T00Z_MSC_RDPS_VerticalVelocity_IsbL-0700_RLatLon0.09_PT002H.grib2 2026-04-28 02:41 543K
20260428T00Z_MSC_RDPS_VerticalVelocity_IsbL-0850_RLatLon0.09_PT002H.grib2 2026-04-28 02:41 684K
20260428T00Z_MSC_RDPS_VerticalWindShear_EtaL-6500_RLatLon0.09_PT002H.grib2 2026-04-28 02:41 1.2M
20260428T00Z_MSC_RDPS_WindChill_Sfc_RLatLon0.09_PT002H.grib2 2026-04-28 02:41 1.1M
20260428T00Z_MSC_RDPS_WindDir_AGL-10m_RLatLon0.09_PT002H.grib2 2026-04-28 02:41 936K
20260428T00Z_MSC_RDPS_WindDir_AGL-120m_RLatLon0.09_PT002H.grib2 2026-04-28 02:41 580K
20260428T00Z_MSC_RDPS_WindDir_AGL-40m_RLatLon0.09_PT002H.grib2 2026-04-28 02:41 610K
20260428T00Z_MSC_RDPS_WindDir_AGL-80m_RLatLon0.09_PT002H.grib2 2026-04-28 02:41 592K
20260428T00Z_MSC_RDPS_WindDir_IsbL-0001_RLatLon0.09_PT002H.grib2 2026-04-28 02:41 292K
20260428T00Z_MSC_RDPS_WindDir_IsbL-0005_RLatLon0.09_PT002H.grib2 2026-04-28 02:41 353K
20260428T00Z_MSC_RDPS_WindDir_IsbL-0010_RLatLon0.09_PT002H.grib2 2026-04-28 02:41 383K
20260428T00Z_MSC_RDPS_WindDir_IsbL-0020_RLatLon0.09_PT002H.grib2 2026-04-28 02:41 394K
20260428T00Z_MSC_RDPS_WindDir_IsbL-0030_RLatLon0.09_PT002H.grib2 2026-04-28 02:41 407K
20260428T00Z_MSC_RDPS_WindDir_IsbL-0050_RLatLon0.09_PT002H.grib2 2026-04-28 02:41 411K
20260428T00Z_MSC_RDPS_WindDir_IsbL-0100_RLatLon0.09_PT002H.grib2 2026-04-28 02:41 400K
20260428T00Z_MSC_RDPS_WindDir_IsbL-0150_RLatLon0.09_PT002H.grib2 2026-04-28 02:41 404K
20260428T00Z_MSC_RDPS_WindDir_IsbL-0175_RLatLon0.09_PT002H.grib2 2026-04-28 02:41 427K
20260428T00Z_MSC_RDPS_WindDir_IsbL-0200_RLatLon0.09_PT002H.grib2 2026-04-28 02:41 434K
20260428T00Z_MSC_RDPS_WindDir_IsbL-0225_RLatLon0.09_PT002H.grib2 2026-04-28 02:41 434K
20260428T00Z_MSC_RDPS_WindDir_IsbL-0250_RLatLon0.09_PT002H.grib2 2026-04-28 02:41 439K
20260428T00Z_MSC_RDPS_WindDir_IsbL-0275_RLatLon0.09_PT002H.grib2 2026-04-28 02:41 457K
20260428T00Z_MSC_RDPS_WindDir_IsbL-0300_RLatLon0.09_PT002H.grib2 2026-04-28 02:41 458K
20260428T00Z_MSC_RDPS_WindDir_IsbL-0350_RLatLon0.09_PT002H.grib2 2026-04-28 02:41 482K
20260428T00Z_MSC_RDPS_WindDir_IsbL-0400_RLatLon0.09_PT002H.grib2 2026-04-28 02:41 499K
20260428T00Z_MSC_RDPS_WindDir_IsbL-0450_RLatLon0.09_PT002H.grib2 2026-04-28 02:41 520K
20260428T00Z_MSC_RDPS_WindDir_IsbL-0500_RLatLon0.09_PT002H.grib2 2026-04-28 02:41 532K
20260428T00Z_MSC_RDPS_WindDir_IsbL-0550_RLatLon0.09_PT002H.grib2 2026-04-28 02:41 546K
20260428T00Z_MSC_RDPS_WindDir_IsbL-0600_RLatLon0.09_PT002H.grib2 2026-04-28 02:41 575K
20260428T00Z_MSC_RDPS_WindDir_IsbL-0650_RLatLon0.09_PT002H.grib2 2026-04-28 02:41 614K
20260428T00Z_MSC_RDPS_WindDir_IsbL-0700_RLatLon0.09_PT002H.grib2 2026-04-28 02:41 653K
20260428T00Z_MSC_RDPS_WindDir_IsbL-0750_RLatLon0.09_PT002H.grib2 2026-04-28 02:41 702K
20260428T00Z_MSC_RDPS_WindDir_IsbL-0800_RLatLon0.09_PT002H.grib2 2026-04-28 02:41 776K
20260428T00Z_MSC_RDPS_WindDir_IsbL-0850_RLatLon0.09_PT002H.grib2 2026-04-28 02:41 842K
20260428T00Z_MSC_RDPS_WindDir_IsbL-0875_RLatLon0.09_PT002H.grib2 2026-04-28 02:41 862K
20260428T00Z_MSC_RDPS_WindDir_IsbL-0900_RLatLon0.09_PT002H.grib2 2026-04-28 02:41 875K
20260428T00Z_MSC_RDPS_WindDir_IsbL-0925_RLatLon0.09_PT002H.grib2 2026-04-28 02:41 880K
20260428T00Z_MSC_RDPS_WindDir_IsbL-0950_RLatLon0.09_PT002H.grib2 2026-04-28 02:41 878K
20260428T00Z_MSC_RDPS_WindDir_IsbL-0970_RLatLon0.09_PT002H.grib2 2026-04-28 02:41 886K
20260428T00Z_MSC_RDPS_WindDir_IsbL-0985_RLatLon0.09_PT002H.grib2 2026-04-28 02:41 896K
20260428T00Z_MSC_RDPS_WindDir_IsbL-1000_RLatLon0.09_PT002H.grib2 2026-04-28 02:41 910K
20260428T00Z_MSC_RDPS_WindDir_IsbL-1015_RLatLon0.09_PT002H.grib2 2026-04-28 02:41 929K
20260428T00Z_MSC_RDPS_WindGust-Max_AGL-10m_RLatLon0.09_PT002H.grib2 2026-04-28 02:41 941K
20260428T00Z_MSC_RDPS_WindGust-Min_AGL-10m_RLatLon0.09_PT002H.grib2 2026-04-28 02:41 919K
20260428T00Z_MSC_RDPS_WindGust_AGL-10m_RLatLon0.09_PT002H.grib2 2026-04-28 02:41 937K
20260428T00Z_MSC_RDPS_WindSpeed_AGL-10m_RLatLon0.09_PT002H.grib2 2026-04-28 02:41 826K
20260428T00Z_MSC_RDPS_WindSpeed_AGL-120m_RLatLon0.09_PT002H.grib2 2026-04-28 02:41 537K
20260428T00Z_MSC_RDPS_WindSpeed_AGL-40m_RLatLon0.09_PT002H.grib2 2026-04-28 02:41 544K
20260428T00Z_MSC_RDPS_WindSpeed_AGL-80m_RLatLon0.09_PT002H.grib2 2026-04-28 02:41 540K
20260428T00Z_MSC_RDPS_WindSpeed_IsbL-0001_RLatLon0.09_PT002H.grib2 2026-04-28 02:41 246K
20260428T00Z_MSC_RDPS_WindSpeed_IsbL-0005_RLatLon0.09_PT002H.grib2 2026-04-28 02:41 288K
20260428T00Z_MSC_RDPS_WindSpeed_IsbL-0010_RLatLon0.09_PT002H.grib2 2026-04-28 02:41 297K
20260428T00Z_MSC_RDPS_WindSpeed_IsbL-0020_RLatLon0.09_PT002H.grib2 2026-04-28 02:41 310K
20260428T00Z_MSC_RDPS_WindSpeed_IsbL-0030_RLatLon0.09_PT002H.grib2 2026-04-28 02:41 305K
20260428T00Z_MSC_RDPS_WindSpeed_IsbL-0050_RLatLon0.09_PT002H.grib2 2026-04-28 02:41 337K
20260428T00Z_MSC_RDPS_WindSpeed_IsbL-0100_RLatLon0.09_PT002H.grib2 2026-04-28 02:41 428K
20260428T00Z_MSC_RDPS_WindSpeed_IsbL-0150_RLatLon0.09_PT002H.grib2 2026-04-28 02:41 375K
20260428T00Z_MSC_RDPS_WindSpeed_IsbL-0175_RLatLon0.09_PT002H.grib2 2026-04-28 02:41 426K
20260428T00Z_MSC_RDPS_WindSpeed_IsbL-0200_RLatLon0.09_PT002H.grib2 2026-04-28 02:41 441K
20260428T00Z_MSC_RDPS_WindSpeed_IsbL-0225_RLatLon0.09_PT002H.grib2 2026-04-28 02:41 446K
20260428T00Z_MSC_RDPS_WindSpeed_IsbL-0250_RLatLon0.09_PT002H.grib2 2026-04-28 02:41 450K
20260428T00Z_MSC_RDPS_WindSpeed_IsbL-0275_RLatLon0.09_PT002H.grib2 2026-04-28 02:41 465K
20260428T00Z_MSC_RDPS_WindSpeed_IsbL-0300_RLatLon0.09_PT002H.grib2 2026-04-28 02:41 463K
20260428T00Z_MSC_RDPS_WindSpeed_IsbL-0350_RLatLon0.09_PT002H.grib2 2026-04-28 02:41 472K
20260428T00Z_MSC_RDPS_WindSpeed_IsbL-0400_RLatLon0.09_PT002H.grib2 2026-04-28 02:41 456K
20260428T00Z_MSC_RDPS_WindSpeed_IsbL-0450_RLatLon0.09_PT002H.grib2 2026-04-28 02:41 452K
20260428T00Z_MSC_RDPS_WindSpeed_IsbL-0500_RLatLon0.09_PT002H.grib2 2026-04-28 02:41 451K
20260428T00Z_MSC_RDPS_WindSpeed_IsbL-0550_RLatLon0.09_PT002H.grib2 2026-04-28 02:41 569K
20260428T00Z_MSC_RDPS_WindSpeed_IsbL-0600_RLatLon0.09_PT002H.grib2 2026-04-28 02:41 580K
20260428T00Z_MSC_RDPS_WindSpeed_IsbL-0650_RLatLon0.09_PT002H.grib2 2026-04-28 02:41 602K
20260428T00Z_MSC_RDPS_WindSpeed_IsbL-0700_RLatLon0.09_PT002H.grib2 2026-04-28 02:41 666K
20260428T00Z_MSC_RDPS_WindSpeed_IsbL-0750_RLatLon0.09_PT002H.grib2 2026-04-28 02:41 694K
20260428T00Z_MSC_RDPS_WindSpeed_IsbL-0800_RLatLon0.09_PT002H.grib2 2026-04-28 02:41 743K
20260428T00Z_MSC_RDPS_WindSpeed_IsbL-0850_RLatLon0.09_PT002H.grib2 2026-04-28 02:41 796K
20260428T00Z_MSC_RDPS_WindSpeed_IsbL-0875_RLatLon0.09_PT002H.grib2 2026-04-28 02:41 771K
20260428T00Z_MSC_RDPS_WindSpeed_IsbL-0900_RLatLon0.09_PT002H.grib2 2026-04-28 02:41 785K
20260428T00Z_MSC_RDPS_WindSpeed_IsbL-0925_RLatLon0.09_PT002H.grib2 2026-04-28 02:41 843K
20260428T00Z_MSC_RDPS_WindSpeed_IsbL-0950_RLatLon0.09_PT002H.grib2 2026-04-28 02:41 844K
20260428T00Z_MSC_RDPS_WindSpeed_IsbL-0970_RLatLon0.09_PT002H.grib2 2026-04-28 02:41 847K
20260428T00Z_MSC_RDPS_WindSpeed_IsbL-0985_RLatLon0.09_PT002H.grib2 2026-04-28 02:41 845K
20260428T00Z_MSC_RDPS_WindSpeed_IsbL-1000_RLatLon0.09_PT002H.grib2 2026-04-28 02:41 835K
20260428T00Z_MSC_RDPS_WindSpeed_IsbL-1015_RLatLon0.09_PT002H.grib2 2026-04-28 02:41 828K
20260428T00Z_MSC_RDPS_WindU_AGL-10m_RLatLon0.09_PT002H.grib2 2026-04-28 02:41 426K
20260428T00Z_MSC_RDPS_WindU_AGL-120m_RLatLon0.09_PT002H.grib2 2026-04-28 02:41 410K
20260428T00Z_MSC_RDPS_WindU_AGL-40m_RLatLon0.09_PT002H.grib2 2026-04-28 02:41 530K
20260428T00Z_MSC_RDPS_WindU_AGL-80m_RLatLon0.09_PT002H.grib2 2026-04-28 02:41 412K
20260428T00Z_MSC_RDPS_WindU_IsbL-0001_RLatLon0.09_PT002H.grib2 2026-04-28 02:41 288K
20260428T00Z_MSC_RDPS_WindU_IsbL-0005_RLatLon0.09_PT002H.grib2 2026-04-28 02:41 281K
20260428T00Z_MSC_RDPS_WindU_IsbL-0010_RLatLon0.09_PT002H.grib2 2026-04-28 02:41 287K
20260428T00Z_MSC_RDPS_WindU_IsbL-0020_RLatLon0.09_PT002H.grib2 2026-04-28 02:41 300K
20260428T00Z_MSC_RDPS_WindU_IsbL-0030_RLatLon0.09_PT002H.grib2 2026-04-28 02:41 338K
20260428T00Z_MSC_RDPS_WindU_IsbL-0050_RLatLon0.09_PT002H.grib2 2026-04-28 02:41 365K
20260428T00Z_MSC_RDPS_WindU_IsbL-0100_RLatLon0.09_PT002H.grib2 2026-04-28 02:41 330K
20260428T00Z_MSC_RDPS_WindU_IsbL-0150_RLatLon0.09_PT002H.grib2 2026-04-28 02:41 393K
20260428T00Z_MSC_RDPS_WindU_IsbL-0175_RLatLon0.09_PT002H.grib2 2026-04-28 02:41 419K
20260428T00Z_MSC_RDPS_WindU_IsbL-0200_RLatLon0.09_PT002H.grib2 2026-04-28 02:41 336K
20260428T00Z_MSC_RDPS_WindU_IsbL-0225_RLatLon0.09_PT002H.grib2 2026-04-28 02:41 341K
20260428T00Z_MSC_RDPS_WindU_IsbL-0250_RLatLon0.09_PT002H.grib2 2026-04-28 02:41 343K
20260428T00Z_MSC_RDPS_WindU_IsbL-0275_RLatLon0.09_PT002H.grib2 2026-04-28 02:41 454K
20260428T00Z_MSC_RDPS_WindU_IsbL-0300_RLatLon0.09_PT002H.grib2 2026-04-28 02:41 450K
20260428T00Z_MSC_RDPS_WindU_IsbL-0350_RLatLon0.09_PT002H.grib2 2026-04-28 02:41 359K
20260428T00Z_MSC_RDPS_WindU_IsbL-0400_RLatLon0.09_PT002H.grib2 2026-04-28 02:41 360K
20260428T00Z_MSC_RDPS_WindU_IsbL-0450_RLatLon0.09_PT002H.grib2 2026-04-28 02:41 460K
20260428T00Z_MSC_RDPS_WindU_IsbL-0500_RLatLon0.09_PT002H.grib2 2026-04-28 02:41 460K
20260428T00Z_MSC_RDPS_WindU_IsbL-0550_RLatLon0.09_PT002H.grib2 2026-04-28 02:41 463K
20260428T00Z_MSC_RDPS_WindU_IsbL-0600_RLatLon0.09_PT002H.grib2 2026-04-28 02:41 473K
20260428T00Z_MSC_RDPS_WindU_IsbL-0650_RLatLon0.09_PT002H.grib2 2026-04-28 02:41 490K
20260428T00Z_MSC_RDPS_WindU_IsbL-0700_RLatLon0.09_PT002H.grib2 2026-04-28 02:41 509K
20260428T00Z_MSC_RDPS_WindU_IsbL-0750_RLatLon0.09_PT002H.grib2 2026-04-28 02:41 519K
20260428T00Z_MSC_RDPS_WindU_IsbL-0800_RLatLon0.09_PT002H.grib2 2026-04-28 02:41 561K
20260428T00Z_MSC_RDPS_WindU_IsbL-0850_RLatLon0.09_PT002H.grib2 2026-04-28 02:41 607K
20260428T00Z_MSC_RDPS_WindU_IsbL-0875_RLatLon0.09_PT002H.grib2 2026-04-28 02:41 624K
20260428T00Z_MSC_RDPS_WindU_IsbL-0900_RLatLon0.09_PT002H.grib2 2026-04-28 02:41 634K
20260428T00Z_MSC_RDPS_WindU_IsbL-0925_RLatLon0.09_PT002H.grib2 2026-04-28 02:41 642K
20260428T00Z_MSC_RDPS_WindU_IsbL-0950_RLatLon0.09_PT002H.grib2 2026-04-28 02:41 640K
20260428T00Z_MSC_RDPS_WindU_IsbL-0970_RLatLon0.09_PT002H.grib2 2026-04-28 02:41 640K
20260428T00Z_MSC_RDPS_WindU_IsbL-0985_RLatLon0.09_PT002H.grib2 2026-04-28 02:41 639K
20260428T00Z_MSC_RDPS_WindU_IsbL-1000_RLatLon0.09_PT002H.grib2 2026-04-28 02:41 772K
20260428T00Z_MSC_RDPS_WindU_IsbL-1015_RLatLon0.09_PT002H.grib2 2026-04-28 02:41 766K
20260428T00Z_MSC_RDPS_WindV_AGL-10m_RLatLon0.09_PT002H.grib2 2026-04-28 02:41 423K
20260428T00Z_MSC_RDPS_WindV_AGL-120m_RLatLon0.09_PT002H.grib2 2026-04-28 02:41 408K
20260428T00Z_MSC_RDPS_WindV_AGL-40m_RLatLon0.09_PT002H.grib2 2026-04-28 02:41 412K
20260428T00Z_MSC_RDPS_WindV_AGL-80m_RLatLon0.09_PT002H.grib2 2026-04-28 02:41 411K
20260428T00Z_MSC_RDPS_WindV_IsbL-0001_RLatLon0.09_PT002H.grib2 2026-04-28 02:41 263K
20260428T00Z_MSC_RDPS_WindV_IsbL-0005_RLatLon0.09_PT002H.grib2 2026-04-28 02:41 279K
20260428T00Z_MSC_RDPS_WindV_IsbL-0010_RLatLon0.09_PT002H.grib2 2026-04-28 02:41 329K
20260428T00Z_MSC_RDPS_WindV_IsbL-0020_RLatLon0.09_PT002H.grib2 2026-04-28 02:41 301K
20260428T00Z_MSC_RDPS_WindV_IsbL-0030_RLatLon0.09_PT002H.grib2 2026-04-28 02:41 299K
20260428T00Z_MSC_RDPS_WindV_IsbL-0050_RLatLon0.09_PT002H.grib2 2026-04-28 02:41 327K
20260428T00Z_MSC_RDPS_WindV_IsbL-0100_RLatLon0.09_PT002H.grib2 2026-04-28 02:41 324K
20260428T00Z_MSC_RDPS_WindV_IsbL-0150_RLatLon0.09_PT002H.grib2 2026-04-28 02:41 390K
20260428T00Z_MSC_RDPS_WindV_IsbL-0175_RLatLon0.09_PT002H.grib2 2026-04-28 02:41 419K
20260428T00Z_MSC_RDPS_WindV_IsbL-0200_RLatLon0.09_PT002H.grib2 2026-04-28 02:41 337K
20260428T00Z_MSC_RDPS_WindV_IsbL-0225_RLatLon0.09_PT002H.grib2 2026-04-28 02:41 364K
20260428T00Z_MSC_RDPS_WindV_IsbL-0250_RLatLon0.09_PT002H.grib2 2026-04-28 02:41 366K
20260428T00Z_MSC_RDPS_WindV_IsbL-0275_RLatLon0.09_PT002H.grib2 2026-04-28 02:41 378K
20260428T00Z_MSC_RDPS_WindV_IsbL-0300_RLatLon0.09_PT002H.grib2 2026-04-28 02:41 375K
20260428T00Z_MSC_RDPS_WindV_IsbL-0350_RLatLon0.09_PT002H.grib2 2026-04-28 02:41 355K
20260428T00Z_MSC_RDPS_WindV_IsbL-0400_RLatLon0.09_PT002H.grib2 2026-04-28 02:41 357K
20260428T00Z_MSC_RDPS_WindV_IsbL-0450_RLatLon0.09_PT002H.grib2 2026-04-28 02:41 356K
20260428T00Z_MSC_RDPS_WindV_IsbL-0500_RLatLon0.09_PT002H.grib2 2026-04-28 02:41 456K
20260428T00Z_MSC_RDPS_WindV_IsbL-0550_RLatLon0.09_PT002H.grib2 2026-04-28 02:41 458K
20260428T00Z_MSC_RDPS_WindV_IsbL-0600_RLatLon0.09_PT002H.grib2 2026-04-28 02:41 470K
20260428T00Z_MSC_RDPS_WindV_IsbL-0650_RLatLon0.09_PT002H.grib2 2026-04-28 02:41 486K
20260428T00Z_MSC_RDPS_WindV_IsbL-0700_RLatLon0.09_PT002H.grib2 2026-04-28 02:41 505K
20260428T00Z_MSC_RDPS_WindV_IsbL-0750_RLatLon0.09_PT002H.grib2 2026-04-28 02:41 514K
20260428T00Z_MSC_RDPS_WindV_IsbL-0800_RLatLon0.09_PT002H.grib2 2026-04-28 02:41 557K
20260428T00Z_MSC_RDPS_WindV_IsbL-0850_RLatLon0.09_PT002H.grib2 2026-04-28 02:41 602K
20260428T00Z_MSC_RDPS_WindV_IsbL-0875_RLatLon0.09_PT002H.grib2 2026-04-28 02:41 620K
20260428T00Z_MSC_RDPS_WindV_IsbL-0900_RLatLon0.09_PT002H.grib2 2026-04-28 02:41 632K
20260428T00Z_MSC_RDPS_WindV_IsbL-0925_RLatLon0.09_PT002H.grib2 2026-04-28 02:41 639K
20260428T00Z_MSC_RDPS_WindV_IsbL-0950_RLatLon0.09_PT002H.grib2 2026-04-28 02:41 638K
20260428T00Z_MSC_RDPS_WindV_IsbL-0970_RLatLon0.09_PT002H.grib2 2026-04-28 02:41 639K
20260428T00Z_MSC_RDPS_WindV_IsbL-0985_RLatLon0.09_PT002H.grib2 2026-04-28 02:41 637K
20260428T00Z_MSC_RDPS_WindV_IsbL-1000_RLatLon0.09_PT002H.grib2 2026-04-28 02:41 770K
20260428T00Z_MSC_RDPS_WindV_IsbL-1015_RLatLon0.09_PT002H.grib2 2026-04-28 02:41 764K